Tracking 28790 objects as of 18-Apr-2024
HD Live streaming from Space Station
objects crossing your sky now

ARIANE 3 DEB

Track ARIANE 3 DEB now!
10-day predictions


NORAD ID: 20488
Int'l Code: 1988-063F
Perigee: 1,099.9 km
Apogee: 15,184.2 km
Inclination: 7.2 °
Period: 290.0 minutes
Semi major axis: 14513 km
RCS: 7.5119 m2 (large)
Launch date: July 21, 1988
Source: France (FR)
Launch site: FRENCH GUIANA (FRGUI)

Note: This is SATELLITE DEBRIS
Your satellite tracking list
Your tracking list is empty




NASA's NSSDC Master Catalog

Two Line Element Set (TLE):
1 20488U 88063F   24107.88216171 -.00000042  00000-0  00000-0 0  9992
2 20488   7.2067 217.7178 4852291 337.8866   6.8079  4.96550985616375
Source of the keplerian elements: AFSPC